Stations météo

réclame
Mon MeteoGroup
UFS Deutsche Bucht, Allemagne (10007): Température de l'air & dewpoint: 16.10.2018 16:00:00 - 22.10.2018 16:00:00 (CEST)UFS Deutsche Bucht, Allemagne (10007): Vitesse du vent & gusts: 16.10.2018 16:00:00 - 22.10.2018 16:00:00 (CEST)UFS Deutsche Bucht, Allemagne (10007): Direction du vent: 16.10.2018 16:00:00 - 22.10.2018 16:00:00 (CEST)UFS Deutsche Bucht, Allemagne (10007): reduced air pressure: 16.10.2018 16:00:00 - 22.10.2018 16:00:00 (CEST)UFS Deutsche Bucht, Allemagne (10007): visibility: 16.10.2018 16:00:00 - 22.10.2018 16:00:00 (CEST)UFS Deutsche Bucht, Allemagne (10007): Ensoleillement: 16.10.2018 16:00:00 - 22.10.2018 16:00:00 (CEST)
Date & Time tt [°C] td [°C] ff [km/h] ff [knt] fx [km/h] fx [knt] dd ppp [hPa] vv [km] sd [min]
22.10.2018 16:00:00 12,1 3,9 36 19 54 29 NW 1031,3 10 54
22.10.2018 15:00:00 12,1 5,0 36 19 50 27 NW 1031,0 10 42
22.10.2018 14:00:00 12,1 3,6 40 21 - - NW 1031,0 10 30
22.10.2018 13:00:00 12,2 4,2 32 18 47 25 NW 1031,3 10 54
22.10.2018 12:00:00 12,2 2,1 40 21 58 31 NNW 1030,8 10 54
22.10.2018 11:00:00 12,4 4,6 43 23 - - NNW 1030,2 10 48
22.10.2018 10:00:00 12,4 6,2 43 23 54 29 NNW 1029,7 10 30
22.10.2018 09:00:00 12,8 4,6 40 21 54 29 NNW 1029,2 10 6
22.10.2018 08:00:00 13,1 6,5 43 23 - - NNW 1028,1 10 0
22.10.2018 07:00:00 13,3 7,3 40 21 47 25 NNW 1027,3 10 0
22.10.2018 06:00:00 13,4 7,6 32 18 47 25 NNW 1026,8 10 0
22.10.2018 05:00:00 13,5 8,6 40 21 - - N 1026,0 10 0
22.10.2018 04:00:00 13,7 8,5 40 21 47 25 N 1025,7 10 0
22.10.2018 03:00:00 13,0 11,5 40 21 50 27 NNW 1025,2 5 0
22.10.2018 02:00:00 13,5 13,0 36 19 - - N 1024,6 3,8 0
22.10.2018 01:00:00 14,2 13,6 29 16 - - WNW 1024,2 8 0
22.10.2018 00:00:00 14,7 13,1 32 18 - - W 1023,9 10 0
21.10.2018 23:00:00 14,7 13,5 36 19 - - WSW 1023,7 5 0
21.10.2018 22:00:00 14,7 12,1 40 21 50 27 WSW 1023,9 8 0
21.10.2018 21:00:00 14,7 11,8 40 21 47 25 WSW 1024,2 9 0
21.10.2018 20:00:00 14,8 11,7 40 21 - - WSW 1024,5 10 0
21.10.2018 19:00:00 14,9 11,1 36 19 47 25 SW 1024,2 10 0
21.10.2018 18:00:00 14,9 11,9 40 21 47 25 SW 1024,2 9 0
21.10.2018 17:00:00 14,8 12,3 36 19 - - SW 1024,9 7 30
21.10.2018 16:00:00 14,6 12,4 36 19 47 25 SW 1025,3 6 60
21.10.2018 15:00:00 14,5 12,4 40 21 47 25 SW 1025,6 7 60
21.10.2018 14:00:00 14,1 12,3 36 19 - - SW 1026,1 8 60
21.10.2018 13:00:00 14,1 12,6 36 19 - - SW 1026,5 6 48
21.10.2018 12:00:00 14,0 12,7 32 18 - - SW 1026,8 5 0
21.10.2018 11:00:00 14,1 12,7 29 16 - - SW 1026,7 6 0
21.10.2018 10:00:00 14,4 13,1 29 16 - - SW 1026,7 6 0
21.10.2018 09:00:00 14,2 13,0 29 16 - - SW 1026,8 5 0
21.10.2018 08:00:00 14,1 12,7 29 16 - - SW 1026,7 6 0
21.10.2018 07:00:00 14,0 12,7 29 16 - - SW 1026,9 5 0
21.10.2018 06:00:00 14,2 12,8 25 14 - - SW 1027,0 9 0
21.10.2018 05:00:00 14,7 12,0 22 12 - - WSW 1027,5 10 0
21.10.2018 04:00:00 14,7 11,7 25 14 - - W 1027,8 10 0
21.10.2018 03:00:00 13,8 12,1 18 10 - - SW 1028,1 10 0
21.10.2018 02:00:00 14,4 10,7 14 8 - - WSW 1028,5 10 0
21.10.2018 01:00:00 14,3 10,9 14 8 - - WSW 1028,6 10 0
21.10.2018 00:00:00 14,3 10,1 18 10 - - WNW 1028,8 10 0
20.10.2018 23:00:00 14,2 10,3 22 12 - - WNW 1028,8 10 0
20.10.2018 22:00:00 14,0 9,8 18 10 - - WNW 1028,9 10 0
20.10.2018 21:00:00 14,2 9,9 22 12 - - WNW 1029,3 10 0
20.10.2018 20:00:00 14,3 10,1 22 12 - - W 1028,9 10 0
20.10.2018 19:00:00 14,2 10,3 22 12 - - WNW 1029,0 10 12
20.10.2018 18:00:00 14,2 9,8 18 10 - - WNW 1028,7 10 54
20.10.2018 17:00:00 14,2 9,7 18 10 - - WNW 1028,8 7 60
20.10.2018 16:00:00 14,1 9,8 25 14 - - NW 1029,2 10 60
20.10.2018 15:00:00 14,2 10,1 29 16 - - NW 1028,9 10 60
20.10.2018 14:00:00 14,1 9,5 25 14 - - WNW 1029,0 10 48
20.10.2018 13:00:00 14,8 9,7 25 14 - - NW 1028,9 10 48
20.10.2018 12:00:00 14,6 10,0 25 14 - - NW 1028,8 10 48
20.10.2018 11:00:00 13,9 9,8 25 14 - - NW 1028,4 10 18
20.10.2018 10:00:00 14,0 10,4 29 16 - - NW 1027,9 10 6
20.10.2018 09:00:00 14,1 10,6 25 14 - - WNW 1027,5 10 0
20.10.2018 08:00:00 13,7 9,8 18 10 - - W 1027,3 10 0
20.10.2018 07:00:00 12,3 10,0 22 12 - - W 1027,1 10 0
20.10.2018 06:00:00 13,2 9,1 32 18 - - W 1026,7 10 0
20.10.2018 05:00:00 12,8 8,4 36 19 - - WSW 1026,7 10 0
20.10.2018 04:00:00 12,8 8,2 29 16 - - WSW 1026,7 10 0
20.10.2018 03:00:00 12,8 7,8 25 14 - - WSW 1026,9 10 0
20.10.2018 02:00:00 12,7 6,7 25 14 - - WSW 1026,8 10 0
20.10.2018 01:00:00 12,9 5,3 18 10 - - WSW 1026,5 10 0
20.10.2018 00:00:00 12,7 5,5 18 10 - - WSW 1027,0 10 0
19.10.2018 23:00:00 12,6 5,9 18 10 - - WSW 1026,8 10 0
19.10.2018 22:00:00 12,5 4,3 7 4 - - SW 1026,6 10 0
19.10.2018 21:00:00 12,5 3,8 7 4 - - W 1026,6 10 0
19.10.2018 20:00:00 12,2 3,1 7 4 - - N 1026,2 10 0
19.10.2018 19:00:00 12,5 5,0 11 6 - - W 1026,3 10 0
19.10.2018 18:00:00 12,2 3,5 11 6 - - W 1025,6 10 0
19.10.2018 17:00:00 12,2 4,6 4 2 - - W 1025,8 10 0
19.10.2018 16:00:00 12,3 4,5 4 2 - - NNE 1026,0 10 0
19.10.2018 15:00:00 12,3 4,4 7 4 - - NW 1026,6 10 0
19.10.2018 14:00:00 12,3 4,4 7 4 - - W 1026,8 10 0
19.10.2018 13:00:00 12,4 4,7 7 4 - - W 1027,0 10 0
19.10.2018 12:00:00 12,1 6,0 14 8 - - SW 1027,0 10 0
19.10.2018 11:00:00 12,3 3,6 11 6 - - W 1027,0 10 0
19.10.2018 10:00:00 12,2 4,3 7 4 - - W 1026,9 10 0
19.10.2018 09:00:00 12,1 3,9 7 4 - - WNW 1026,7 10 0
19.10.2018 08:00:00 12,0 3,9 4 2 - - SW 1026,6 10 0
19.10.2018 07:00:00 12,1 4,6 7 4 - - NNE 1026,5 10 0
19.10.2018 06:00:00 12,0 3,8 7 4 - - NE 1026,6 10 0
19.10.2018 05:00:00 12,0 4,2 11 6 - - ENE 1026,6 10 0
19.10.2018 04:00:00 12,1 4,8 11 6 - - ENE 1026,6 10 0
19.10.2018 03:00:00 12,0 4,3 14 8 - - NE 1026,8 10 0
19.10.2018 02:00:00 12,1 4,7 14 8 - - NNE 1027,1 10 0
19.10.2018 01:00:00 12,3 5,3 18 10 - - N 1027,3 10 0
19.10.2018 00:00:00 12,2 4,8 14 8 - - NNE 1027,4 10 0
18.10.2018 23:00:00 12,3 5,0 22 12 - - NNE 1027,5 10 0
18.10.2018 22:00:00 12,4 5,2 22 12 - - NNE 1027,4 10 0
18.10.2018 21:00:00 12,5 5,3 22 12 - - N 1026,9 10 0
18.10.2018 20:00:00 12,6 6,7 22 12 - - N 1026,8 10 0
18.10.2018 19:00:00 12,7 5,1 25 14 - - NNE 1026,5 10 24
18.10.2018 18:00:00 12,8 5,1 25 14 - - N 1026,1 0,6 60
18.10.2018 17:00:00 13,1 7,1 25 14 - - N 1025,9 1,7 54
18.10.2018 16:00:00 13,3 7,3 29 16 - - N 1026,0 10 54
18.10.2018 15:00:00 13,4 8,3 29 16 - - N 1026,0 10 24
18.10.2018 14:00:00 13,5 8,7 29 16 - - NNE 1025,7 10 48
18.10.2018 13:00:00 13,6 8,7 25 14 - - NNE 1025,8 10 42
18.10.2018 12:00:00 13,4 8,8 29 16 - - NNE 1025,6 10 54
18.10.2018 11:00:00 13,4 8,0 36 19 - - NNE 1024,9 10 6
18.10.2018 10:00:00 13,7 9,1 25 14 - - N 1024,3 10 0
18.10.2018 09:00:00 13,5 8,7 32 18 - - N 1023,7 10 0
18.10.2018 08:00:00 13,6 9,3 29 16 - - N 1023,0 10 0
18.10.2018 07:00:00 14,1 10,7 32 18 - - N 1022,4 10 0
18.10.2018 06:00:00 14,1 12,5 29 16 - - N 1021,9 10 0
18.10.2018 05:00:00 13,9 12,2 29 16 - - N 1021,8 10 0
18.10.2018 04:00:00 14,1 13,0 32 18 - - NNW 1021,5 10 0
18.10.2018 03:00:00 14,6 12,9 18 10 - - NNW 1021,4 10 0
18.10.2018 02:00:00 14,8 11,9 18 10 - - NW 1021,3 10 0
18.10.2018 01:00:00 15,0 12,2 18 10 - - NNW 1021,3 10 0
18.10.2018 00:00:00 15,0 12,7 18 10 - - NW 1020,9 10 0
17.10.2018 23:00:00 15,1 12,1 14 8 - - WNW 1020,8 10 0
17.10.2018 22:00:00 15,1 12,0 22 12 - - WNW 1020,6 10 0
17.10.2018 21:00:00 15,2 11,6 18 10 - - W 1020,2 10 0
17.10.2018 20:00:00 15,4 12,6 14 8 - - W 1019,9 10 0
17.10.2018 19:00:00 15,3 12,6 14 8 50 27 W 1019,6 10 6
17.10.2018 18:00:00 15,6 12,7 14 8 - - W 1019,2 10 60
17.10.2018 17:00:00 15,7 13,4 22 12 - - W 1019,0 10 54
17.10.2018 16:00:00 15,7 14,5 18 10 - - W 1018,7 10 36
17.10.2018 15:00:00 15,7 14,7 18 10 - - W 1018,5 9 36
17.10.2018 14:00:00 15,8 14,5 18 10 - - W 1018,5 4,9 48
17.10.2018 13:00:00 15,6 13,9 14 8 - - WSW 1018,5 0,9 54
17.10.2018 12:00:00 15,3 13,6 14 8 - - SW 1018,6 5 42
17.10.2018 11:00:00 15,5 13,4 22 12 - - SW 1018,2 6 60
17.10.2018 10:00:00 15,6 13,2 22 12 - - SW 1017,7 7 42
17.10.2018 09:00:00 15,6 13,3 18 10 - - SSW 1017,4 9 0
17.10.2018 08:00:00 15,7 13,2 18 10 - - S 1017,2 9 0
17.10.2018 07:00:00 15,8 13,5 14 8 - - S 1016,9 9 0
17.10.2018 06:00:00 16,2 13,7 14 8 - - SSW 1017,0 9 0
17.10.2018 05:00:00 16,4 13,5 22 12 - - S 1016,6 10 0
17.10.2018 04:00:00 16,3 13,8 22 12 - - S 1016,8 10 0
17.10.2018 03:00:00 16,5 13,8 22 12 - - S 1017,2 10 0
17.10.2018 02:00:00 16,7 14,0 18 10 - - S 1017,4 10 0
17.10.2018 01:00:00 16,9 14,2 18 10 - - S 1017,8 10 0
17.10.2018 00:00:00 17,0 14,4 18 10 - - S 1017,9 10 0
16.10.2018 23:00:00 17,4 14,6 22 12 - - S 1018,1 10 0
16.10.2018 22:00:00 16,7 15,0 22 12 - - SSE 1018,1 7 0
16.10.2018 21:00:00 16,5 15,2 22 12 - - SSE 1018,2 5 0
16.10.2018 20:00:00 15,9 15,3 22 12 - - SSE 1018,3 4,5 0
16.10.2018 19:00:00 15,3 15,1 14 8 - - SE 1018,1 4,0 0
16.10.2018 18:00:00 14,1 14,0 7 4 - - SSE 1018,0 0,3 0
16.10.2018 17:00:00 14,0 13,8 11 6 - - SSW 1017,9 0,1 0
16.10.2018 16:00:00 13,9 13,6 14 8 - - SSW 1017,9 0,1 0

tt = Température de l'air
td = dewpoint
ff = Vitesse du vent
fx = gusts
dd = Direction du vent
ppp = reduced air pressure
vv = visibility
sd = Ensoleillement

stations d'obs. à proximité